STARLINK-36510, 67407

Orbit data source: Space-Track

STARLINK-36510, 67407 is a payload satellite owned by SpaceX/Seattle (US) in LEO that was launched on Mon, 12 Jan 2026 UTC via an FALCON 9 launch vehicle from the Air Force Eastern Test Range (AFETR). Payload-class satellites include a variety of spacecraft equipped with specific instruments for various scientific and technological missions. These include communications satellites like Starlink; space stations such as the ISS; scientific satellites like the Hubble; Earth observation satellites from companies like Planet Labs, Umbra, and HawkEye 360; GPS; miniature CubeSats for education and research; and military/defense satellites.

Loading next visibility...
Identifier
67407, 2026-005D
Orbit
LEO
Country
Flag of USUS
Related business
Manufacturer
SpaceX/Seattle
Mission
Operational Commercial Communications
Bus & Motor
STARLINK V2MO, Unknown motor
Mass
575 kg wet, ~530 kg dry
Launch date (UTC)
2026-01-12 (5 months ago)
Launch vehicle
FALCON 9
Launch site
Air Force Eastern Test Range (AFETR)
Object type
Payload
Rocket body
Debris
Shape & HBR
Box + 2 Pan, 17.7 m
Radar Cross Section
36.964 m², Large (>1 m²)

Expand to show TLE details & history
Last TLE update: 20 hours ago

TLE from 20 hours ago
0 STARLINK-36510
1 67407U 26005D   26171.00458292  .00020611  00000-0  75597-3 0  9990
2 67407  43.0037  20.2170 0002160 273.0003  87.0601 15.27599597 24343
Epoch: 2026-06-20T00:06Z
TLE epoch observation values (Epoch: 2026-06-20T00:06:35.964Z)
Latitude
-0.00004°
Longitude
110.34167°
Altitude
482.691 km
Speed
7.626 km/s
True Right ascension
01h 20m 52s
True Declination
0° 00' 00"
Sunlit
Object was in daylight at epoch
Visualization orbit readout
Latitude
Unknown
Longitude
Unknown
Altitude
Unknown
Speed
Unknown
Apparent Right ascension
Unknown
Apparent Declination
Unknown
Sunlit
N/A
Visualization observer readout
Local Sidereal Time
07:13:04
Azimuth
Unknown
Elevation
Unknown
Doppler factor
Unknown
Orbital elements
Apogee altitude
486.417 km
Perigee altitude
483.453 km
Semi-major axis
6,863.072 km
Eccentricity
0.00022
Inclination
43.0037°
RAAN
20.217°
Arg. of periapsis
273.0003°
True anomaly
87.08482°
Mean anomaly
87.0601°
Eccentric anomaly
87.07246°
Mean motion
3.81738 °/min
Orbital period
94.31 mins
BSTAR
0.00075597
Loading maneuver chart data...
Computing Atmospheric mass density...
Loading historical data...
Loading historical data...
Loading historical data...
Loading historical data...
Loading historical data...
Loading historical data...
Loading historical data...

Documentation

Showing up to 5 results
|